Location: Bergnershof
(48.9468°N, 10.9431°E)
Time: 11:44:41
(UTC+00:00)

Cosmos 2360 Rocket - Pass Details

Date: 03 March 2021
Orbit: 832 x 846 km, 71.0° (Epoch: 13 April)

Event Time Altitude Azimuth Distance (km) Brightness Sun altitude
Rises 20:22:51 0° 251° (WSW) 3,388 5.8 -32.4°
Reaches altitude 10° 20:25:48 10° 266° (W) 2,460 5.2 -32.8°
Maximum altitude 20:30:15 23° 318° (NW) 1,713 4.3 -33.4°
Drops below altitude 10° 20:34:44 10° 10° (N) 2,476 4.8 -34.0°
Sets 20:37:43 0° 25° (NNE) 3,416 5.5 -34.5°
